SCP
0 0 0 0 0 0 0 0 0 0 0 0 0 0 0 0 0 0 0 0 0 0 0 0 0 0 0 0 0 0 0 0 0 0 0 0 0 0 0 0 0 0 0 0
0 0 0 0 0 0 0 0 0 0 0 0 0 0 0 0 0 0 0 0 0 0 0 0 0 0 0 0 0 0 0 0 0 0 0 0 0 0 0 0 0 0 0 0
0 0 0 0 0 0 0 0 0 0 0 0 0 0 0 0 0 0 0 0 0 0 0 0 0 0 0 0 0 0 0 0 0 0 0 0 0 0 0 0 0 0 0 0
0 0 0 0 0 0 0 0 0 0 0 0 0 0 0 0 0 0 0 0 0 0 0 0 0 0 0 0 0 0 0 0 0 0 0 0 0 0 0 0 0 0 0 0
0 0 0 0 0 0 0 0 0 0 0 0 0 0 0 0 0 0 0 0 0 0 0 0 0 0 0 0 0 0 0 0 0 0 0 0 0 0 0 0 0 0 0 0
0 0 0 0 0 0 0 0 0 0 0 0 0 0 0 0 0 0 0 0 0 0 0 0 0 0 0 0 0 0 0 0 0 0 0 0 0 0 0 0 0 0 0 0
0 0 0 0 0 0 0 0 0 0 0 0 0 0 0 0 0 0 0 0 0 0 0 0 0 0 0 0 0 0 0 0 0 0 0 0 0 0 0 0 0 0 0 0
0 0 0 0 0 0 0 0 0 0 0 0 0 0 0 0 0 0 0 0 0 0 0 0 0 0 0 0 0 0 0 0 0 0 0 0 0 0 0 0 0 0 0 0
0 0 0 0 0 0 0 0 0 0 0 0 0 0 0 0 0 0 0 0 0 0 0 0 0 0 0 0 0 0 0 0 0 0 0 0 0 0 0 0 0 0 0 0
0 0 0 0 0 0 0 0 0 0 0 0 0 0 0 0 0 0 0 0 0 0 0 0 0 0 0 0 0 0 0 0 0 0 0 0 0 0 0 0 0 0 0 0
0 0 0 0 0 0 0 0 0 0 0 0 0 0 0 0 0 0 0 0 0 0 0 0 0 0 0 0 0 0 0 0 0 0 0 0 0 0 0 0 0 0 0 0
0 0 0 0 0 0 0 0 0 0 0 0 0 0 0 0 0 0 0 0 0 0 0 0 0 0 0 0 0 0 0 0 0 0 0 0 0 0 0 0 0 0 0 0
0 0 0 0 0 0 0 0 0 0 0 0 0 0 0 0 0 0 0 0 0 0 0 0 0 0 0 0 0 0 0 0 0 0 0 0 0 0 0 0 0 0 0 0
0 0 0 0 0 0 0 0 0 0 0 0 0 0 0 0 0 0 0 0 0 0 0 0 0 0 0 0 0 0 0 0 0 0 0 0 0 0 0 0 0 0 0 0
0 0 0 0 0 0 0 0 0 0 0 0 0 0 0 0 0 0 0 0 0 0 1 1 1 1 0 0 1 1 0 0 1 1 1 0 0 0 0 0 0 0 0 0
0 0 0 0 0 0 0 0 0 0 0 0 0 0 0 0 0 0 0 0 1 1 1 1 1 1 1 1 1 1 1 1 1 1 1 0 0 0 0 0 0 0 0 0
0 0 0 0 0 0 0 0 0 0 0 0 0 0 0 0 0 0 0 1 1 1 1 1 1 1 1 1 1 1 1 1 1 1 1 0 0 0 0 0 0 0 0 0
0 0 0 0 0 0 0 0 0 0 0 0 0 0 0 0 0 0 0 1 1 1 1 1 1 1 1 1 1 1 1 1 1 1 1 0 0 0 0 0 0 0 0 0
0 0 0 0 0 0 0 0 0 0 0 0 0 1 1 1 1 0 0 1 1 1 1 1 1 1 1 1 1 1 1 1 1 1 1 0 0 0 0 0 0 0 0 0
0 0 0 0 0 0 0 0 0 0 0 0 1 1 1 1 1 0 1 1 1 1 1 1 1 1 1 1 1 1 1 1 1 1 1 0 0 0 0 0 0 0 0 0
0 0 0 0 0 0 0 0 0 0 0 0 1 1 1 1 1 1 1 1 1 1 1 1 1 1 1 1 1 1 1 1 1 1 1 0 0 0 0 0 0 0 0 0
0 0 0 0 0 0 0 0 0 0 0 0 1 1 1 1 1 1 1 1 1 1 1 1 1 1 1 1 1 1 1 1 1 1 1 0 0 0 0 0 0 0 0 0
0 0 0 0 0 0 0 0 0 0 0 0 1 1 1 1 1 1 1 1 1 1 1 1 1 1 1 1 1 1 1 1 1 1 1 0 0 0 0 0 0 0 0 0
0 0 0 0 0 0 0 0 0 0 0 0 1 1 1 1 1 1 1 1 1 1 1 1 1 1 1 1 1 1 1 1 1 1 1 0 0 0 0 0 0 0 0 0
0 0 0 0 0 0 0 0 0 0 0 0 1 1 1 1 1 1 1 1 1 1 1 1 1 1 1 1 1 1 1 1 1 1 0 0 0 0 0 0 0 0 0 0
0 0 0 0 0 0 0 0 0 0 0 0 0 0 0 0 0 1 1 1 1 1 1 1 1 1 1 1 1 1 1 1 1 1 0 0 0 0 0 0 0 0 0 0
Wind_Speed
3 5 2 5 6 5 6 5 3 4 3 5 4 4 5 8 7 8 8 8 8 8 5 4 5 5 5 4 4 4 4 3 3 2 2 1 1 0 0 1 1 1 2 2
5 1 4 4 4 5 5 4 2 0 2 4 2 2 4 8 10 10 10 10 9 7 5 5 5 5 6 5 5 4 4 4 3 2 2 2 2 1 1 0 0 1 1 1
4 4 2 4 4 4 2 6 5 3 3 4 3 3 2 4 5 5 7 8 9 10 9 8 7 6 6 7 7 6 5 4 3 3 2 2 2 1 1 1 1 1 0 1
3 3 3 4 4 6 3 4 5 5 5 0 2 2 6 4 5 7 9 9 10 10 9 8 8 8 8 8 6 5 5 4 3 4 3 3 2 2 1 1 0 1 1 0
4 2 3 3 4 6 4 3 5 5 5 3 2 1 8 1 5 10 11 11 11 11 11 10 10 9 8 7 6 5 4 4 3 3 4 3 2 2 1 1 0 1 1 1
4 2 3 4 2 5 7 8 8 6 5 1 3 3 7 5 9 8 10 12 11 10 10 9 8 7 6 5 5 4 4 4 3 4 4 4 4 3 2 1 1 0 1 1
2 3 1 3 4 3 6 7 5 5 4 5 2 3 10 8 8 9 9 11 10 9 9 9 8 8 7 7 6 5 5 4 4 4 4 4 4 4 3 3 2 1 0 1
3 4 3 3 6 7 5 9 9 6 5 4 1 6 9 6 6 6 6 7 8 9 9 10 11 10 9 9 8 7 6 5 4 4 3 3 3 2 2 2 2 2 1 0
7 6 4 2 3 10 7 3 6 8 3 1 5 7 10 3 2 2 5 7 9 10 10 11 10 10 10 9 9 8 7 6 5 4 4 3 3 3 3 2 2 1 1 1
8 3 3 1 5 5 6 9 6 7 6 2 5 5 6 5 4 3 5 7 8 8 9 9 10 10 9 9 7 7 7 7 5 5 4 3 3 3 2 2 2 2 2 2
4 4 2 2 4 5 5 5 6 5 6 7 3 8 8 8 7 7 8 8 9 10 10 10 9 9 8 7 7 7 7 6 5 5 4 4 3 3 3 2 2 2 2 3
3 6 2 4 3 2 5 7 8 6 4 5 4 10 6 6 6 6 6 6 6 7 7 8 8 8 8 8 8 8 7 7 6 5 5 4 4 3 3 3 2 3 3 3
5 7 3 4 5 2 2 3 4 7 6 5 5 9 4 2 2 4 4 4 4 5 5 6 7 8 8 8 8 8 8 8 7 6 6 5 4 4 4 3 3 3 4 4
7 6 7 9 8 4 2 2 4 7 5 5 7 7 7 4 4 4 3 4 5 5 6 7 7 7 7 8 8 8 8 8 8 7 7 6 5 5 4 4 4 4 4 4
6 4 3 3 3 3 3 4 5 5 8 8 8 8 9 7 7 5 3 4 6 6 7 8 8 7 7 7 7 7 7 8 8 8 7 6 5 4 4 4 4 5 5 4
4 4 2 0 1 2 2 2 4 4 4 4 3 7 7 4 2 3 4 6 7 8 8 8 8 8 9 9 9 9 9 8 8 9 8 6 5 5 4 4 5 5 5 4
2 5 4 2 2 2 2 4 4 3 3 5 6 8 4 2 3 5 6 7 9 9 8 9 9 9 9 10 10 10 9 9 9 9 8 7 7 6 5 5 5 5 4 4
5 5 4 2 2 4 8 2 2 4 2 3 3 4 4 5 4 3 3 6 6 6 7 8 8 8 8 8 8 8 8 9 9 8 8 7 7 6 6 5 5 4 4 4
4 7 5 4 3 4 4 1 1 2 2 1 2 3 3 2 2 3 2 3 6 6 6 6 7 8 8 8 9 9 9 8 8 8 8 8 8 7 7 6 5 4 4 4
4 5 6 5 5 6 6 3 2 2 3 3 1 1 1 2 1 5 3 2 3 3 4 5 5 6 8 8 10 10 10 10 10 9 8 8 8 8 8 7 5 4 4 4
3 4 4 4 3 6 5 5 1 4 6 3 2 2 2 3 5 4 3 2 1 2 3 6 7 7 7 8 10 10 10 10 9 8 8 8 8 8 7 6 5 5 5 4
4 4 4 4 3 7 3 1 3 5 3 2 2 2 2 3 2 2 1 0 1 2 4 6 6 6 6 8 9 9 9 9 8 9 9 9 8 7 7 7 6 6 6 5
3 5 5 6 7 5 2 2 3 2 2 2 2 3 2 2 2 1 0 1 1 2 3 5 6 6 6 7 8 9 7 8 10 9 9 8 8 7 7 7 7 6 5 4
1 2 2 2 4 4 3 2 2 1 2 2 2 2 1 1 0 0 1 1 2 2 3 4 7 6 5 5 6 6 8 9 10 10 9 8 8 7 7 6 6 6 5 5
3 2 1 2 4 3 3 2 2 2 2 2 2 2 1 0 1 0 0 1 2 2 2 3 5 6 5 5 5 5 7 10 10 9 8 8 7 7 6 5 4 6 5 6
4 5 5 6 5 3 4 4 2 1 1 1 1 3 3 0 0 1 0 1 2 2 3 3 3 4 4 5 5 5 7 8 9 8 7 6 6 6 6 5 3 2 2 5
Wind_Direction
41 78 153 202 184 172 153 156 195 229 182 154 190 215 201 189 192 196 198 198 203 212 209 185 176 166 157 162 174 179 169 165 146 134 141 144 177 215 234 240 232 219 211 190
45 253 221 181 147 126 135 144 173 22 137 143 175 241 222 198 204 202 199 200 201 205 197 185 175 170 172 178 189 191 189 180 172 158 156 156 151 170 187 230 282 221 203 196
172 231 176 133 135 129 163 172 177 160 91 60 88 329 248 229 217 215 212 204 200 200 197 192 185 185 182 189 196 198 195 188 179 161 126 98 74 53 51 27 326 317 224 181
212 242 150 135 164 146 210 202 158 138 118 21 117 262 277 228 225 223 218 207 205 204 196 191 188 189 193 198 194 192 186 181 175 164 161 162 168 180 204 197 223 348 358 328
229 200 157 174 196 159 176 112 111 119 116 74 39 161 285 213 232 233 221 211 207 200 195 192 194 195 193 187 182 182 171 172 169 165 165 160 162 171 149 111 58 1 359 356
231 238 189 190 146 137 119 77 58 52 70 69 230 172 273 232 221 229 216 208 203 195 193 192 188 180 178 172 170 167 165 176 172 165 160 162 165 165 155 157 168 310 350 349
318 305 248 140 102 63 96 93 49 17 17 252 246 200 249 246 229 219 210 204 196 185 181 182 178 181 179 176 176 172 171 180 174 163 166 174 174 173 181 185 183 184 300 333
171 268 239 178 162 161 157 135 151 176 207 264 291 235 254 261 259 230 204 188 177 176 176 186 189 185 183 182 179 173 173 176 170 166 170 165 162 164 174 176 165 171 186 242
171 238 280 226 165 134 132 148 152 127 144 202 275 283 299 305 312 192 174 170 176 180 183 188 187 184 182 182 182 176 172 172 174 172 161 155 154 152 155 156 148 145 140 114
154 203 282 302 82 39 132 141 106 116 139 222 288 278 257 270 249 218 191 190 189 181 181 185 186 184 182 183 179 170 171 175 173 165 162 157 152 151 145 131 127 121 106 92
131 149 304 38 151 164 106 94 102 109 144 153 225 267 231 224 222 212 212 204 190 185 184 186 186 180 175 170 166 166 166 161 160 161 156 149 145 142 131 126 126 117 103 101
132 121 205 260 277 192 147 154 145 146 185 164 170 262 266 230 228 216 221 211 193 185 181 182 178 167 166 168 169 170 167 166 168 161 153 151 143 137 131 130 124 113 104 93
131 113 91 349 346 8 96 127 131 120 116 147 167 260 303 304 250 227 218 200 178 173 173 171 165 167 171 172 173 173 170 170 162 152 148 144 143 141 140 134 121 113 109 99
115 112 157 188 208 193 165 149 145 125 138 184 215 248 293 290 266 257 224 188 169 170 174 175 173 174 174 174 174 173 170 165 157 152 151 152 159 158 147 133 120 111 107 101
105 130 174 212 215 184 179 182 179 173 174 178 221 225 252 253 246 238 206 177 164 171 178 182 182 179 173 171 173 172 167 161 156 154 158 164 161 152 136 125 120 114 107 104
77 128 125 15 289 194 178 194 188 197 180 201 214 247 257 271 240 224 191 181 186 190 191 187 184 180 178 176 176 172 168 164 157 158 162 158 150 144 136 131 124 114 105 100
84 115 113 220 306 74 236 217 194 190 190 173 202 240 278 274 226 217 203 192 198 197 193 188 188 187 183 178 174 174 167 157 158 159 159 158 157 152 146 141 131 123 116 107
131 112 121 135 103 208 239 256 189 169 199 212 235 259 253 246 244 228 200 199 210 203 196 194 187 183 179 170 167 161 155 158 159 157 156 157 155 150 143 140 138 131 122 116
145 133 119 125 161 253 289 285 138 163 253 235 230 276 293 340 31 324 263 211 212 205 199 198 186 174 164 161 157 151 158 160 158 161 161 161 159 154 151 148 146 140 131 122
65 97 116 129 151 213 239 272 278 151 260 284 220 239 234 75 71 272 294 249 219 184 171 170 161 150 155 156 147 150 161 164 171 170 167 162 158 158 160 159 151 139 137 135
55 58 115 145 183 249 259 288 36 150 242 284 264 242 196 191 217 260 296 285 205 158 157 154 152 156 159 154 151 157 167 180 174 160 158 156 156 159 161 155 148 141 134 127
160 146 166 144 169 244 282 51 151 218 261 276 267 259 241 232 250 265 275 341 85 100 125 139 144 152 152 155 157 164 177 172 156 155 161 163 161 161 164 157 151 147 143 140
182 184 181 183 207 242 265 226 246 220 244 274 271 278 223 212 229 248 286 82 89 116 133 139 140 139 148 159 162 172 173 157 155 160 166 164 162 162 160 160 158 154 154 156
262 158 150 251 270 276 296 296 297 257 244 272 274 285 253 220 247 195 108 99 103 128 142 141 139 144 156 164 170 172 162 158 159 164 166 165 163 162 163 164 164 165 170 172
233 161 145 256 276 317 324 318 314 351 15 22 8 358 329 106 16 330 175 144 132 111 109 136 147 154 158 159 164 160 160 159 162 166 166 168 169 165 168 165 169 176 185 186
214 184 179 222 227 204 257 280 294 22 350 352 24 356 339 299 262 52 57 133 131 130 130 138 145 148 156 163 165 164 163 163 160 161 165 172 172 168 167 161 147 115 162 177